{"data":{"norad_id":67483,"intl_designator":"2025-276ED","name":"ION SCV-021","alt_names":[],"object_type":"PAYLOAD","status":"ACTIVE","operator":null,"country":"IT","launch_date":"2025-11-28","launch_site_code":"AFWTR","launch_vehicle":null,"mission":null,"orbit_class":"UNKNOWN","rcs_meters":null,"size_class":null,"mass_kg":null,"dimensions":null,"purposes":[],"wikipedia_slug":null,"has_3d_model":false,"image_url":null,"decayed_at":null,"tle_current":{"epoch":"2026-09-20T12:09:10.912320Z","epoch_age_seconds":96138,"freshness":"FRESH","line1":"1 67483U 25276ED  26263.50637630  .00000234  00000+0  24520-4 0  9994","line2":"2 67483  97.5153 330.4741 0010423 150.4749 209.7065 14.98063031 36870","mean_motion":14.98063031,"eccentricity":0.0010423,"inclination_deg":97.5153,"raan_deg":330.4741,"arg_perigee_deg":150.4749,"mean_anomaly_deg":209.7065,"bstar":2.452e-5,"rev_number":3687,"period_min":96.124126301866,"perigee_km":565.63654647756,"apogee_km":580.12663983686,"semimajor_km":6951.0185931572,"source":"CELESTRAK","updated_at":"2026-09-21T09:00:16.669748Z"}}}